FW4331 Weather Reports


Display with metric or nautical units.
time (UTC)temp
F
wind
direction
speed
MPH
gust
MPH
rain 1hr
in
rain 24hr
in
rain mn
in
humidity
%
barometer
mb
20260904181554 90 261 3.0 6.0 0.00 0.53 0.02 47 1011.8
20260904180058 90 285 1.0 7.0 0.00 0.53 0.02 45 1012.0
20260904174552 90 328 3.0 6.0 0.00 0.53 0.02 46 1012.3
20260904173056 90 37 2.0 6.0 0.00 0.53 0.02 45 1012.3
20260904171607 89 13 3.0 7.0 0.00 0.53 0.02 47 1012.2
20260904170047 89 293 1.0 7.0 0.00 0.53 0.02 47 1012.6
20260904164554 89 25 3.0 9.0 0.00 0.53 0.02 47 1012.7
20260904163043 88 329 2.0 5.0 0.00 0.53 0.02 46 1012.8
20260904161546 87 32 3.0 9.0 0.00 0.53 0.02 48 1012.8
20260904160038 87 31 4.0 12.0 0.00 0.53 0.02 47 1012.9
20260904154535 86 12 4.0 9.0 0.00 0.53 0.02 48 1013.0
20260904153048 86 41 5.0 10.0 0.00 0.53 0.02 47 1013.0
20260904151526 86 25 3.0 8.0 0.00 0.53 0.02 48 1012.9
20260904150033 86 54 2.0 9.0 0.00 0.53 0.02 30 1013.0
20260904144519 84 329 1.0 5.0 0.00 0.53 0.02 26 1013.1
20260904143021 84 345 3.0 9.0 0.00 0.53 0.02 23 1013.2
20260904141513 83 284 2.0 7.0 0.00 0.53 0.02 27 1013.4
20260904140002 82 254 0.0 4.0 0.00 0.53 0.02 30 1013.3
20260904134601 81 14 1.0 4.0 0.00 0.53 0.02 31 1013.3
20260904133054 80 34 0.0 3.0 0.00 0.53 0.02 33 1013.2
20260904131600 78 42 1.0 3.0 0.00 0.53 0.02 37 1013.3
20260904130045 77 82 0.0 3.0 0.00 0.53 0.02 40 1013.5
20260904124540 76 135 0.0 3.0 0.00 0.53 0.02 40 1013.7
20260904123036 74 150 0.0 2.0 0.00 0.53 0.02 44 1013.5
20260904121530 73 127 0.0 2.0 0.00 0.53 0.02 47 1013.3
20260904120023 72 37 0.0 1.0 0.00 0.53 0.02 49 1013.3
20260904114520 71 6 0.0 3.0 0.00 0.53 0.02 49 1013.1
20260904113033 0 0.0 0.0 0.00 0.53 0.02 1013.5
20260904111511 0 0.0 0.0 0.00 0.53 0.02 1013.5
20260904110008 0 0.0 0.0 0.00 0.53 0.02 1012.9
20260904104502 0 0.0 0.0 0.00 0.53 0.02 1012.8
20260904103059 0 0.0 0.0 0.00 0.53 0.02 1012.4
20260904101555 0 0.0 0.0 0.00 0.53 0.02 1012.2
20260904100051 0 231 0.0 0.0 0.00 0.53 0.02 1012.1
20260904094559 69 236 0.0 0.0 0.00 0.53 0.02 49 1012.0
20260904093039 69 235 0.0 0.0 0.00 0.53 0.02 49 1011.9
20260904091536 69 265 0.0 0.0 0.00 0.53 0.02 49 1012.1
20260904090137 69 265 0.0 0.0 0.00 0.53 0.02 49 1012.0
20260904084533 69 170 0.0 0.0 0.00 0.53 0.02 49 1012.0
20260904083038 69 169 0.0 0.0 0.00 0.53 0.02 49 1012.2
20260904081527 69 169 0.0 0.0 0.00 0.53 0.02 49 1012.3
20260904080025 70 255 0.0 1.0 0.00 0.53 0.02 49 1012.1
20260904074522 70 272 0.0 2.0 0.00 0.53 0.02 49 1012.1
20260904073023 70 140 0.0 2.0 0.00 0.53 0.02 48 1012.1
20260904071517 70 175 0.0 3.0 0.00 0.53 0.02 48 1012.1
20260904070016 70 51 0.0 2.0 0.00 0.53 0.02 48 1012.0
20260904064515 70 264 0.0 1.0 0.00 0.53 0.02 48 1011.8
20260904063011 70 278 0.0 4.0 0.00 0.53 0.02 48 1011.8
20260904061508 70 233 2.0 5.0 0.00 0.53 0.02 48 1011.9
20260904060014 70 260 0.0 0.0 0.01 0.53 0.02 48 1011.3
20260904054504 70 229 0.0 0.0 0.02 0.53 0.02 48 1010.8
20260904053059 70 134 0.0 2.0 0.02 0.53 0.02 47 1011.5
20260904051553 70 221 1.0 3.0 0.02 0.53 0.02 47 1012.7
20260904050048 70 147 0.0 3.0 0.01 0.52 0.01 46 1013.6
20260904044548 70 53 0.0 2.0 0.36 0.51 0.00 44 1013.9
20260904043043 70 81 0.0 7.0 0.51 0.51 0.00 40 1013.9
20260904041534 71 307 2.0 14.0 0.51 0.51 0.00 40 1014.8
20260904040036 71 30 13.0 24.0 0.51 0.51 0.00 42 1014.5
20260904034525 74 32 11.0 35.0 0.13 0.13 0.13 56 1014.2
20260904033025 78 68 8.0 17.0 0.00 0.00 0.00 51 1013.8
20260904031521 80 293 4.0 11.0 0.00 0.00 0.00 42 1012.6
20260904030020 80 271 0.0 1.0 0.00 0.00 0.00 52 1012.1
20260904024526 81 300 1.0 4.0 0.00 0.00 0.00 57 1012.2
20260904023016 81 251 0.0 0.0 0.00 0.00 0.00 57 1012.6
20260904021519 81 274 0.0 0.0 0.00 0.00 0.00 58 1012.6
20260904020011 81 161 0.0 0.0 0.00 0.00 0.00 59 1012.7
20260904014510 81 160 0.0 0.0 0.00 0.00 0.00 60 1012.6
20260904013008 81 160 0.0 0.0 0.00 0.00 0.00 61 1012.7
20260904011505 82 160 0.0 0.0 0.00 0.00 0.00 61 1012.7
20260904010009 82 274 0.0 0.0 0.00 0.00 0.00 62 1012.5
20260904004501 82 217 0.0 0.0 0.00 0.00 0.00 61 1012.8
20260904003123 83 201 0.0 0.0 0.00 0.00 0.00 61 1012.9
20260904001558 83 262 0.0 2.0 0.00 0.00 0.00 61 1013.1
20260904000056 83 278 0.0 1.0 0.00 0.00 0.00 61 1013.0
20260903234553 84 278 0.0 4.0 0.00 0.00 0.00 60 1013.0
20260903233056 85 273 1.0 3.0 0.00 0.00 0.00 59 1012.6
20260903231550 86 165 0.0 2.0 0.00 0.00 0.00 58 1012.5
20260903230050 86 227 2.0 5.0 0.00 0.00 0.00 57 1012.6
20260903224548 87 262 0.0 5.0 0.00 0.00 0.00 57 1012.3
20260903223103 88 262 2.0 5.0 0.00 0.00 0.00 55 1012.1
20260903221547 89 269 1.0 7.0 0.00 0.00 0.00 54 1012.1
20260903220045 89 200 3.0 8.0 0.00 0.00 0.00 54 1012.1
20260903214544 90 246 4.0 7.0 0.00 0.00 0.00 54 1012.3
20260903213045 90 297 4.0 10.0 0.00 0.00 0.00 53 1012.4
20260903211600 90 217 4.0 10.0 0.00 0.00 0.00 53 1012.3
20260903210041 90 228 4.0 7.0 0.00 0.00 0.00 52 1012.4
20260903204540 91 236 4.0 8.0 0.00 0.00 0.00 50 1012.5
20260903203040 91 242 2.0 10.0 0.00 0.00 0.00 52 1012.5
20260903201537 90 209 5.0 8.0 0.00 0.00 0.00 52 1012.7
20260903200034 91 249 4.0 8.0 0.00 0.00 0.00 49 1013.0
20260903194530 90 269 3.0 7.0 0.00 0.01 0.00 50 1013.2
20260903193027 90 222 4.0 11.0 0.00 0.01 0.00 49 1013.5
20260903191529 90 284 5.0 8.0 0.00 0.01 0.00 49 1013.7
20260903190025 90 216 3.0 8.0 0.00 0.01 0.00 49 1013.8
20260903184523 90 245 3.0 7.0 0.00 0.01 0.00 48 1014.0
20260903183021 89 281 3.0 9.0 0.00 0.01 0.00 47 1014.2